x

Cape Lookout, Nc (clkn7) Weather Station

1:00pm - Wed 20th Sep 2017 All times are EDT. -4 hours from GMT.

  • Wind
    11mph, 15mph gusts
  • Air Temp 81°f
  • Sea Pressure 1015.2mb
  • Cape Lookout, Nc
  • Cape Lookout, Nc

More Historic Weather Station data

Upgrade to MSW Pro to gain access to the past 30 days of data for over 8000 Wavebouys and Weather Stations around the globe.

Join

Comparision Forecast

View Surf forecast
   
Wed 09/20 1:00pm 11 15 mph 1015.2mb 81f
12:00pm 9 11 mph 1015.5mb 81f
11:00am 10 11 mph 1015.7mb 79f
10:00am 9 11 mph 1015.8mb 78f
9:00am 9 10 mph 1015.8mb 77f
8:00am 11 13 mph 1015.4mb 76f
7:00am 8 9 mph 1014.8mb 74f
6:00am 8 9 mph 1014.3mb 75f
5:00am 9 11 mph 1013.7mb 76f
4:00am 8 9 mph 1013.4mb 76f
3:00am 7 8 mph 1012.9mb 75f
2:00am 7 8 mph 1013.1mb 76f
1:00am 7 7 mph 1013.1mb 75f
12:00am 6 6 mph 1013.3mb 75f
Tue 09/19 11:00pm 1 1 mph 1013.4mb 75f
10:00pm  -  1 mph 1013.4mb 75f
9:00pm 5 7 mph 1013.1mb 77f
8:00pm 7 9 mph 1012.2mb 79f
7:00pm 11 13 mph 1011.7mb 79f
6:00pm 14 16 mph 1011.4mb 80f
5:00pm 14 15 mph 1011.2mb 80f
4:00pm 11 14 mph 1011.3mb 80f
3:00pm 17 20 mph 1011.4mb 79f
2:00pm 13 17 mph 1011.5mb 78f
1:00pm 18 21 mph 1012.1mb 77f
12:00pm 20 23 mph 1012.3mb 76f
11:00am 13 17 mph 1012.6mb 75f
10:00am 15 20 mph 1012.6mb 72f
9:00am 20 23 mph 1012mb 71f
8:00am 18 22 mph 1011.7mb 71f
7:00am 15 20 mph 1011.2mb 71f
6:00am 15 18 mph 1010.5mb 71f
5:00am 15 21 mph 1010.4mb 72f
4:00am 16 20 mph 1010.3mb 72f
3:00am 20 23 mph 1010.2mb 72f
2:00am 22 24 mph 1010.5mb 73f
1:00am 17 21 mph 1011.3mb 73f
12:00am 21 25 mph 1011.8mb 74f
Mon 09/18 11:00pm 15 20 mph 1012.3mb 74f
10:00pm 18 21 mph 1012.3mb 74f
9:00pm 18 24 mph 1012.4mb 75f
8:00pm 18 22 mph 1012.2mb 76f
7:00pm 20 24 mph 1011.6mb 78f
6:00pm 17 22 mph 1011.2mb 80f
5:00pm 20 25 mph 1011.4mb 81f
4:00pm 20 23 mph 1011.5mb 81f
3:00pm 16 18 mph 1012mb 80f
2:00pm 17 21 mph 1012.5mb 81f
1:00pm 20 23 mph 1012.9mb 80f
12:00pm 20 24 mph 1013.3mb 79f
11:00am 21 24 mph 1013.6mb 76f
10:00am 20 26 mph 1013.7mb 75f
9:00am 18 23 mph 1013.3mb 75f
8:00am 18 22 mph 1013.4mb 73f
7:00am 17 26 mph 1013mb 74f
6:00am 21 25 mph 1012.6mb 74f
5:00am 20 25 mph 1012.5mb 73f
4:00am 16 21 mph 1012.5mb 73f
3:00am 17 21 mph 1013mb 74f
2:00am 17 21 mph 1013.7mb 74f
1:00am 17 22 mph 1014.1mb 74f
12:00am 15 20 mph 1014.3mb 75f
Sun 09/17 11:00pm 18 21 mph 1014.8mb 75f
10:00pm 14 17 mph 1015.2mb 75f
9:00pm 15 18 mph 1015.1mb 75f
8:00pm 16 20 mph 1014.8mb 76f
7:00pm 15 20 mph 1014.6mb 77f
6:00pm 23 28 mph 1014.4mb 77f
5:00pm 20 23 mph 1014.6mb 78f
4:00pm 22 24 mph 1014.8mb 78f
3:00pm 18 22 mph 1015.1mb 78f
2:00pm 18 22 mph 1015.3mb 79f
1:00pm 15 18 mph 1015.8mb 78f
12:00pm 16 20 mph 1016.3mb 78f
11:00am 15 18 mph 1016.6mb 77f
10:00am 13 15 mph 1016.5mb 75f
9:00am 13 15 mph 1016.6mb 74f
8:00am 7 8 mph 1016.8mb 71f
7:00am 14 15 mph 1016.8mb 72f
6:00am 18 22 mph 1016mb 77f
5:00am 20 22 mph 1015.4mb 77f
4:00am 20 22 mph 1015.5mb 76f
3:00am 21 23 mph 1015.5mb 76f
2:00am 16 20 mph 1015.9mb 76f
1:00am 18 22 mph 1016.5mb 76f
12:00am 18 21 mph 1016.8mb 77f
Sat 09/16 11:00pm 22 25 mph 1017.1mb 76f
10:00pm 22 25 mph 1017.2mb 77f
9:00pm 21 23 mph 1016.9mb 77f
8:00pm 18 20 mph 1016.9mb 78f
7:00pm 18 22 mph 1016.8mb 78f